Regional Weather Roundup
Issued by NWS Little Rock, AR

Home | Current Version | Previous Version | Graphics & Text | Print | Product List | Glossary On
Versions: 1 2 3 4 5 6 7 8 9 10 11 12 13 14 15 16 17 18 19 20 21 22 23 24 25 26 27 28 29 30 31 32 33 34 35 36 37 38 39 40 41 42 43 44 45
000
ASUS44 KLZK 011905
RWRLZK

WEATHER ROUNDUP FOR ARKANSAS
NATIONAL WEATHER SERVICE LITTLE ROCK AR
200 PM CDT SAT AUG 01 2015

NOTE: "FAIR" INDICATES FEW OR NO CLOUDS BELOW 12,000 FEET WITH NO
SIGNIFICANT WEATHER AND/OR OBSTRUCTIONS TO VISIBILITY.

ARZ001-003-010-029-012000-
NORTHWEST ARKANSAS

CITY           SKY/WX    TMP DP  RH WIND       PRES   REMARKS
FAYETTEVILLE   MOSUNNY   89  67  47 NW3       30.07F HX  92
FORT SMITH     SUNNY     94  60  32 CALM      30.03F HX  94
HARRISON       SUNNY     89  63  41 VRB5      30.08F HX  90
BENTONVILLE    MOSUNNY   90  63  40 W7        30.09F HX  90
ROGERS         SUNNY     90  64  42 S8        30.08F HX  91
SILOAM SPGS    SUNNY     91  64  40 W7        30.06F HX  93
HIGHFILL       MOSUNNY   90  65  43 SW5       30.07F HX  92
SPRINGDALE     MOSUNNY   90  64  43 W8        30.09F HX  91
$$

ARZ004-005-016-012000-
NORTH CENTRAL ARKANSAS

CITY           SKY/WX    TMP DP  RH WIND       PRES   REMARKS
BATESVILLE     MOSUNNY   91  64  40 CALM      30.02F HX  93
FLIPPIN        SUNNY     91  61  35 N5        30.04F HX  91
MTN HOME       SUNNY     88  61  40 CALM      30.05F HX  88
$$

ARZ040-041-012000-
WEST CENTRAL ARKANSAS

CITY           SKY/WX    TMP DP  RH WIND       PRES   REMARKS
MENA           SUNNY     95  52  23 E5        30.07F HX  92
MOUNT IDA      SUNNY     94  56  27 VRB3      30.03F HX  92
$$

ARZ009-017-025-026-028-012000-
NORTHEAST ARKANSAS

CITY           SKY/WX    TMP DP  RH WIND       PRES   REMARKS
JONESBORO      SUNNY     91  62  37 VRB5      30.01F HX  91
NEWPORT        SUNNY     92  68  45 NE3       30.02F HX  96
WALNUT RIDGE   SUNNY     91  64  40 N3        30.01F HX  93
BLYTHEVILLE    SUNNY     91  71  51 CALM      30.01F HX  97
$$

ARZ022-023-033-042-044-012000-
CENTRAL ARKANSAS

CITY           SKY/WX    TMP DP  RH WIND       PRES   REMARKS
LITTLE ROCK    PTSUNNY   95  60  31 SE8       30.01F HX  95
N LITTLE ROCK  PTSUNNY   97  62  30 NE8       30.01F HX  98
JACKSONVILLE   SUNNY     96  58  28 VRB3      30.01F HX  95
SEARCY         MOSUNNY   95  68  41 E5        30.02F HX  99
HOT SPRINGS    MOSUNNY   96  54  24 SW7       30.02F HX  94
RUSSELLVILLE   SUNNY     93  62  35 S6        30.02F HX  93
$$

ARZ036-012000-
EAST ARKANSAS

CITY           SKY/WX    TMP DP  RH WIND       PRES   REMARKS
WEST MEMPHIS   SUNNY     93  67  42 N7        29.99F HX  96
$$

ARZ050-053-066-070-073-012000-
SOUTHWEST ARKANSAS

CITY           SKY/WX    TMP DP  RH WIND       PRES   REMARKS
ARKADELPHIA    FAIR      98  59  27 CALM      30.02F HX  97
CAMDEN         SUNNY     95  57  28 E5        30.01F HX  94
TEXARKANA      SUNNY     92  61  35 E6        30.03F HX  92
EL DORADO      SUNNY     94  58  29 E12       30.02F HX  93
DE QUEEN       SUNNY     93  63  36 E8        30.02F HX  94
$$

ARZ056-057-069-012000-
SOUTHEAST ARKANSAS

CITY           SKY/WX    TMP DP  RH WIND       PRES   REMARKS
PINE BLUFF     SUNNY     92  61  35 MISG      30.02F HX  92
STUTTGART      SUNNY     91  64  40 MISG      30.02F HX  93
MONTICELLO     SUNNY     94  62  34 NE9       30.01F HX  94

$$





USA.gov is the U.S. government's official web portal to all federal, state and local government web resources and services.